Flag for U.S.A. Weather past 2 weeks in St. Croix Falls, Wisconsin, U.S.A.

Now
36 °F

Clear.


Feels Like: 36 °F
Forecast: 41 / 55 °F
Wind: No wind

Location: L O Simenstad Municipal Airport

Current Time: Oct 20, 2014 at 8:19:18 AM

Latest Report: Oct 20, 2014 at 7:55 AM


Visibility: 10 mi

Pressure: 29.99 "Hg

Humidity: 100%

Dew point: 36 °F

Location of St. Croix FallsLocation

Historic Weather in St. Croix Falls — Graph

°F

St. Croix Falls temperature yesterday

Maximum temperature yesterday: 65 °F (at 4:35 PM)
Minimum temperature yesterday: 33 °F (at 12:35 AM)
Average temperature yesterday: 50 °F

Past Weeks' High & Low Weather Summary

 TemperatureHumidityPressure
High70 °F (Oct 16, 4:15 PM)100% (Oct 6, 2:35 AM)30.30 "Hg (Oct 6, 2:35 AM)
Low26 °F (Oct 11, 6:55 AM)34% (Oct 15, 3:55 PM)29.42 "Hg (Oct 6, 6:55 PM)
Average46 °F75%29.92 "Hg
* Reported Oct 5 7:15 AM — Oct 20 7:15 AM, St. Croix Falls, Weather by CustomWeather, © 2014

Note: Actual official high and low records may vary slightly from our data, if they occured in-between our weather recording intervals... More about our weather records

Advertising

St. Croix Falls weather history for previous 24 hours

 ConditionsComfort  
Time TempWeatherWind HumidityBarometerVisibility
7:15 AM
Oct 20
36 °FClear.No wind100%29.97 "Hg10 mi
6:55 AM36 °FClear.No wind100%29.96 "Hg10 mi
6:15 AM36 °FClear.No wind100%29.96 "Hg10 mi
5:55 AM37 °FClear.No wind100%29.96 "Hg10 mi
5:35 AM38 °FClear.No wind100%29.95 "Hg10 mi
5:15 AM38 °FPassing clouds.No wind100%29.94 "Hg10 mi
4:55 AM38 °FPassing clouds.No wind100%29.94 "Hg10 mi
4:15 AM39 °FClear.No wind99%29.93 "Hg10 mi
3:55 AM40 °FClear.No wind92%29.92 "Hg10 mi
3:35 AM46 °FClear.No wind81%29.92 "Hg10 mi
3:15 AM47 °FClear.3 mph82%29.91 "Hg10 mi
2:55 AM47 °FClear.3 mph80%29.91 "Hg10 mi
2:35 AM49 °FClear.No wind77%29.91 "Hg10 mi
2:15 AM50 °FClear.No wind74%29.90 "Hg10 mi
1:55 AM50 °FClear.3 mph74%29.90 "Hg10 mi
1:35 AM51 °FClear.3 mph72%29.90 "Hg10 mi
1:15 AM51 °FClear.3 mph73%29.89 "Hg10 mi
12:55 AM52 °FClear.5 mph70%29.88 "Hg10 mi
12:35 AM53 °FClear.6 mph70%29.88 "Hg10 mi
10:15 PM
Oct 19
56 °FClear.6 mph61%29.84 "Hg10 mi
9:55 PM57 °FClear.7 mph59%29.83 "Hg10 mi
9:15 PM56 °FClear.8 mph62%29.82 "Hg10 mi
8:55 PM56 °FClear.7 mph64%29.81 "Hg10 mi
8:35 PM56 °FClear.8 mph64%29.81 "Hg10 mi
8:15 PM54 °FClear.5 mph70%29.81 "Hg10 mi
7:55 PM54 °FClear.5 mph70%29.80 "Hg10 mi
7:35 PM51 °FClear.No wind77%29.80 "Hg10 mi
7:15 PM53 °FSunny.No wind72%29.80 "Hg10 mi
6:55 PM53 °FSunny.No wind70%29.79 "Hg10 mi
6:35 PM55 °FSunny.3 mph67%29.79 "Hg10 mi
6:15 PM59 °FSunny.No wind62%29.79 "Hg10 mi
5:55 PM62 °FSunny.3 mph56%29.79 "Hg10 mi
5:15 PM64 °FSunny.8 mph50%29.79 "Hg10 mi
4:55 PM64 °FSunny.8 mph50%29.79 "Hg10 mi
4:35 PM65 °FSunny.10 mph48%29.79 "Hg10 mi
4:15 PM63 °FSunny.9 mph51%29.79 "Hg10 mi
3:55 PM64 °FSunny.10 mph51%29.80 "Hg10 mi
3:35 PM63 °FSunny.13 mph52%29.81 "Hg10 mi
3:15 PM61 °FSunny.10 mph54%29.81 "Hg10 mi
2:55 PM62 °FSunny.10 mph52%29.81 "Hg10 mi
2:35 PM62 °FSunny.8 mph54%29.83 "Hg10 mi
2:15 PM60 °FScattered clouds.13 mph56%29.84 "Hg10 mi
1:55 PM60 °FScattered clouds.13 mph56%29.84 "Hg10 mi
1:15 PM59 °FScattered clouds.13 mph58%29.85 "Hg10 mi
12:55 PM59 °FScattered clouds.14 mph58%29.86 "Hg10 mi
12:35 PM58 °FScattered clouds.13 mph60%29.86 "Hg10 mi
12:15 PM56 °FOvercast.15 mph61%29.87 "Hg10 mi
11:55 AM56 °FOvercast.16 mph61%29.87 "Hg10 mi
11:35 AM54 °FScattered clouds.10 mph67%29.88 "Hg10 mi
11:15 AM51 °FScattered clouds.8 mph71%29.89 "Hg10 mi
10:55 AM51 °FPartly sunny.10 mph71%29.90 "Hg10 mi
10:35 AM50 °FScattered clouds.12 mph72%29.91 "Hg10 mi
10:15 AM50 °FSunny.12 mph72%29.92 "Hg10 mi
9:55 AM48 °FSunny.8 mph75%29.93 "Hg10 mi
9:35 AM47 °FSunny.9 mph78%29.93 "Hg10 mi
9:15 AM47 °FSunny.9 mph78%29.94 "Hg10 mi
8:55 AM46 °FSunny.10 mph79%29.95 "Hg10 mi
8:15 AM46 °FPassing clouds.10 mph80%29.95 "Hg10 mi
Weather by CustomWeather, © 2014

See weather overviewHow to use our weather pages